Cheyenne, WY

5:23 PM MDT on July 25, 2017 (GMT -0600)
Cheyenne

Weather History for KCYS - March, 2013

Change the Weather History Date:

Tuesday, March 5, 2013

  Actual Average Record
Temperature  
Mean Temperature 23 °F 34 °F  
Max Temperature 37 °F 45 °F 66 °F (1910)
Min Temperature 8 °F 22 °F -14 °F (1948)
Degree Days  
Heating Degree Days 42 32  
Month to date heating degree days 150 161  
Since 1 July heating degree days 5083 5180  
Cooling Degree Days 0 0  
Month to date cooling degree days 0 0  
Year to date cooling degree days 0 0  
Moisture  
Dew Point 10 °F    
Average Humidity 55    
Maximum Humidity 77    
Minimum Humidity 32    
Precipitation  
Precipitation 0.00 in 0.03 in 0.93 in (1990)
Month to date precipitation 0.05 0.13  
Year to date precipitation 0.93 0.93  
Snow  
Snow 0.00 in 0.30 in 9.00 in (1983)
Month to date snowfall 1.0 1.5  
Since 1 July snowfall 39.4 38.0  
Snow Depth T in    
Sea Level Pressure  
Sea Level Pressure 30.30 in    
Wind  
Wind Speed 9 mph (SW)    
Max Wind Speed 20 mph    
Max Gust Speed 24 mph    
Visibility 10 miles    
Events      
T = Trace of Precipitation, MM = Missing Value Source: NWS Daily Summary

Daily Weather History Graph

Daily Weather History Graph

Search for Another Location

Airport or City:

Trip Planner

Search our weather history database for the weather conditions in past years. The results will help you decide how hot, cold, wet, or windy it might be!

Date:

Astronomy

Mar. 05, 2013 Rise Set
Actual Time 6:26 AM MST 5:55 PM MST
Civil Twilight 5:59 AM MST 6:22 PM MST
Nautical Twilight 5:27 AM MST 6:54 PM MST
Astronomical Twilight 4:55 AM MST 7:26 PM MST
Moon 1:43 AM MST (3/5) 11:34 AM MST (3/5)
Length of Visible Light 12h 23m
Length of Day
11h 28m
Last Quarter, 40% of the Moon is Illuminated
Mar 5
Last Quarter
Mar 11
New
Mar 19
First Quarter
Mar 27
Full
Apr 2
Last Quarter

Hourly Weather History & Observations

Time (MST) Temp. Windchill Dew Point Humidity Pressure Visibility Wind Dir Wind Speed Gust Speed Precip Events Conditions
12:53 AM 15.1 °F 4.2 °F 3.9 °F 61% 30.35 in 10.0 mi NW 8.1 mph 18.4 mph N/A   Clear
1:53 AM 12.9 °F 0.7 °F 3.0 °F 65% 30.37 in 10.0 mi West 9.2 mph - N/A   Clear
2:53 AM 17.1 °F 5.8 °F 3.9 °F 56% 30.33 in 10.0 mi NW 9.2 mph - N/A   Clear
3:53 AM 12.9 °F 2.6 °F 3.0 °F 65% 30.35 in 10.0 mi West 6.9 mph - N/A   Clear
4:53 AM 12.0 °F 5.9 °F 3.0 °F 67% 30.37 in 10.0 mi WNW 3.5 mph - N/A   Clear
5:53 AM 8.6 °F 2.0 °F 1.4 °F 73% 30.16 in 10.0 mi NW 3.5 mph - N/A   Clear
6:53 AM 10.0 °F -2.9 °F 3.0 °F 73% 30.40 in 10.0 mi SSW 9.2 mph - N/A   Clear
7:53 AM 17.1 °F 7.6 °F 8.1 °F 68% 30.39 in 10.0 mi SW 6.9 mph - N/A   Clear
8:53 AM 21.0 °F 9.9 °F 10.0 °F 63% 30.39 in 10.0 mi South 10.4 mph - N/A   Clear
9:53 AM 25.0 °F 17.1 °F 10.0 °F 53% 30.37 in 10.0 mi SSW 6.9 mph - N/A   Clear
10:53 AM 27.0 °F 17.3 °F 12.9 °F 56% 30.35 in 10.0 mi South 10.4 mph - N/A   Clear
11:53 AM 30.9 °F 21.7 °F 12.0 °F 46% 30.34 in 10.0 mi South 11.5 mph - N/A   Clear
12:53 PM 33.1 °F 22.6 °F 9.0 °F 37% 30.30 in 10.0 mi SSW 16.1 mph - N/A   Clear
1:53 PM 35.6 °F 27.5 °F 12.2 °F 38% 30.13 in 10.0 mi South 11.5 mph - N/A   Clear
2:53 PM 35.1 °F 25.2 °F 10.0 °F 35% 30.25 in 10.0 mi South 16.1 mph 19.6 mph N/A   Clear
3:53 PM 36.0 °F 26.7 °F 9.0 °F 33% 30.25 in 10.0 mi South 15.0 mph - N/A   Clear
4:53 PM 32.0 °F 22.1 °F 10.9 °F 42% 30.28 in 10.0 mi South 13.8 mph 23.0 mph N/A   Clear
5:53 PM 28.9 °F 20.4 °F 10.9 °F 47% 30.31 in 10.0 mi South 9.2 mph - N/A   Clear
6:53 PM 27.0 °F 17.3 °F 12.9 °F 56% 30.31 in 10.0 mi South 10.4 mph - N/A   Clear
7:53 PM 25.0 °F 14.8 °F 15.1 °F 66% 30.29 in 10.0 mi South 10.4 mph - N/A   Clear
8:53 PM 23.0 °F 14.7 °F 15.1 °F 72% 30.28 in 10.0 mi South 6.9 mph - N/A   Clear
9:53 PM 21.9 °F 17.2 °F 15.1 °F 75% 30.26 in 10.0 mi WSW 3.5 mph - N/A   Clear
10:53 PM 23.0 °F - 15.1 °F 72% 30.23 in 10.0 mi Calm Calm - N/A   Clear
11:53 PM 21.9 °F - 15.1 °F 75% 30.18 in 10.0 mi Calm Calm - N/A   Clear